Location: Düngen
(52.0952°N, 10.0219°E)
Time: 15:21:03
(UTC+00:00)

Cosmos 2263 Rocket - Pass Details

Date: 11 March 2026
Orbit: 823 x 847 km, 71.0° (Epoch: 14 April)

Event Time Altitude Azimuth Distance (km) Brightness Sun altitude
Rises 21:27:43 0° 330° (NNW) 3,410 6.4 -35.1°
Reaches altitude 10° 21:30:23 10° 338° (NNW) 2,468 5.3 -35.4°
Enters shadow 21:33:40 29° 6° (N) 1,504 3.8 -35.7°
